Regional Weather Roundup
Issued by NWS

Home | Current Version | Previous Version | Text Only | Print | Product List | Glossary On
Versions: 1 2 3 4 5 6 7 8 9 10 11 12 13 14 15 16 17 18 19 20 21 22 23 24 25 26 27 28 29 30 31 32 33 34 35 36 37 38 39 40 41 42 43 44 45 46 47 48 49 50
000
ASUS43 KTOP 290208
RWRKS

WEATHER ROUNDUP FOR KANSAS
NATIONAL WEATHER SERVICE GOODLAND KS
900 PM CDT THU JUL 28 2016

NOTE:  "FAIR" INDICATES FEW OR NO CLOUDS BELOW 12,000 FEET WITH NO
SIGNIFICANT WEATHER AND/OR OBSTRUCTIONS TO VISIBILITY.

KSZ001>006-013>018-027>032-041>047-290300-
NORTHWEST KANSAS

CITY           SKY/WX    TMP DP  RH WIND       PRES   REMARKS
GOODLAND       MOCLDY    71  63  75 NE7       30.12R
HAYS           PTCLDY    70  57  64 E5        30.02S
HILL CITY      PTCLDY    71  62  73 N6        30.03R
RUSSELL        CLOUDY    70  64  81 CALM      29.99S
$$

KSZ061>065-074>080-084>089-290300-
SOUTHWEST KANSAS

CITY           SKY/WX    TMP DP  RH WIND       PRES   REMARKS
DODGE CITY     CLEAR     81  65  58 E8        29.99R
ELKHART          N/A     77  59  54 SE8         N/A
GARDEN CITY    CLEAR     79  63  57 E8        29.99S
GREAT BEND     CLEAR     73  61  64 E10G18    30.02R
LIBERAL        PTCLDY    84  57  39 S8        29.98F
PRATT          CLOUDY    72  63  73 E28G33    30.04R
$$

KSZ066>073-081>083-090>101-290300-
SOUTHEAST KANSAS

CITY           SKY/WX    TMP DP  RH WIND       PRES   REMARKS
CHANUTE        CLEAR     80  75  84 NW3       29.95R
COFFEYVILLE    PTCLDY    83  75  77 CALM      29.92R
HUTCHINSON     CLOUDY    70  67  90 CALM      30.02F
NEWTON         CLOUDY    71  67  87 NW17G28   30.04R THUNDER
PARSONS        MOCLDY    79  75  87 MISG      29.95R
WICHITA INTL   TSTM      69  66  90 NE14      30.02F FOG
WICHITA JABRA  TSTM      69  68  96 SE12      30.02R VSB 1
WICHITA MCCONL TSTM      70  66  88 E10G44    30.07  FOG
WINFIELD       CLOUDY    77  72  84 W3        29.98R
$$

KSZ007>012-019>026-033>040-048>060-102>105-290300-
NORTHEAST KANSAS

CITY           SKY/WX    TMP DP  RH WIND       PRES   REMARKS
CONCORDIA      CLOUDY    69  66  90 N6        29.94R
EMPORIA        CLOUDY    79  69  71 NW21G31   30.03R
LAWRENCE       CLEAR     78  69  73 N7        29.95R
MANHATTAN      RAIN      70  69  97 SE7       30.02R
MARYSVILLE     LGT RAIN  73  68  83 NE3       29.97F
OLATHE IND     CLEAR     78  69  73 N8        29.96R
OLATHE EXE     PTCLDY    81  67  62 N7        29.95R
SALINA         CLOUDY    72  66  81 E5        29.97F
TOPEKA BILLARD PTCLDY    80  68  66 N8        29.97R
TOPEKA FORBES  MOCLDY    83  69  62 N7        29.98R
$$




USA.gov is the U.S. government's official web portal to all federal, state and local government web resources and services.